Lone Rock, WI

6:14 PM CDT on August 31, 2016 (GMT -0500)
Tri-County Regional

Weather History for KLNR - January, 2014

Change the Weather History Date:

Friday, January 10, 2014

  Actual Average Record
Temperature  
Mean Temperature 28 °F -  
Max Temperature 34 °F 24 °F 52 °F (2012)
Min Temperature 21 °F 11 °F -11 °F (2015)
Degree Days  
Heating Degree Days 38    
Moisture  
Dew Point 29 °F    
Average Humidity 95    
Maximum Humidity 100    
Minimum Humidity 88    
Precipitation  
Precipitation 0.09 in - - ()
Sea Level Pressure  
Sea Level Pressure 29.75 in    
Wind  
Wind Speed 5 mph (ESE)    
Max Wind Speed 14 mph    
Max Gust Speed -    
Visibility 2 miles    
Events Fog , Rain    
Averages and records for this station are not official NWS values.
T = Trace of Precipitation, MM = Missing Value Source: NWS Daily Summary

Daily Weather History Graph

Daily Weather History Graph

Search for Another Location

Airport or City:

Trip Planner

Search our weather history database for the weather conditions in past years. The results will help you decide how hot, cold, wet, or windy it might be!

Date:

Astronomy

Jan. 10, 2014 Rise Set
Actual Time 7:31 AM CST 4:45 PM CST
Civil Twilight 6:59 AM CST 5:17 PM CST
Nautical Twilight 6:24 AM CST 5:52 PM CST
Astronomical Twilight 5:50 AM CST 6:26 PM CST
Moon 12:51 PM CST (1/10) 2:36 AM CST (1/10)
Length of Visible Light 10h 17m
Length of Day
9h 13m
Waxing Gibbous, 75% of the Moon is Illuminated
Jan 10
Waxing Gibbous
Jan 15
Full
Jan 23
Last Quarter
Jan 30
New
Feb 6
First Quarter

Hourly Weather History & Observations

Time (CST) Temp. Windchill Dew Point Humidity Pressure Visibility Wind Dir Wind Speed Gust Speed Precip Events Conditions
12:03 AM 21.9 °F - 19.0 °F 89% 30.07 in 2.5 mi Calm Calm - N/A   Overcast
12:32 AM 21.9 °F 17.2 °F 19.0 °F 89% 30.06 in 3.0 mi SE 3.5 mph - N/A   Overcast
12:47 AM 21.9 °F 17.2 °F 19.0 °F 89% 30.05 in 2.5 mi ESE 3.5 mph - N/A   Overcast
12:56 AM 21.9 °F 15.7 °F 19.0 °F 89% 30.07 in 2.5 mi ESE 4.6 mph - N/A   Overcast
1:56 AM 23.0 °F 15.8 °F 19.9 °F 88% 30.06 in 2.0 mi ESE 5.8 mph - N/A   Overcast
2:56 AM 23.0 °F - 21.0 °F 92% 30.06 in 2.0 mi Calm Calm - N/A   Overcast
3:56 AM 24.1 °F 19.7 °F 21.9 °F 91% 30.04 in 2.5 mi ENE 3.5 mph - N/A   Overcast
4:56 AM 25.0 °F 20.7 °F 23.0 °F 92% 30.02 in 2.5 mi East 3.5 mph - N/A   Overcast
5:50 AM 26.6 °F - 24.8 °F 93% 29.99 in 1.8 mi Calm Calm - N/A   Overcast
5:56 AM 26.1 °F - 25.0 °F 96% 30.01 in 1.8 mi Calm Calm - N/A   Overcast
6:44 AM 26.1 °F 20.5 °F 25.0 °F 96% 29.97 in 0.8 mi SE 4.6 mph - N/A   Overcast
6:56 AM 26.1 °F 21.9 °F 25.0 °F 96% 29.99 in 0.8 mi SE 3.5 mph - N/A   Overcast
7:07 AM 27.0 °F 21.6 °F 25.0 °F 92% 29.96 in 1.0 mi SE 4.6 mph - N/A   Overcast
7:39 AM 27.0 °F 21.6 °F 26.1 °F 96% 29.95 in 0.8 mi ESE 4.6 mph - N/A   Overcast
7:51 AM 26.6 °F 21.2 °F 26.6 °F 100% 29.95 in 0.2 mi ESE 4.6 mph - N/A Fog Light Freezing Fog
7:56 AM 27.0 °F 20.5 °F 26.1 °F 96% 29.97 in 0.2 mi SE 5.8 mph - N/A Fog Light Freezing Fog
8:09 AM 27.0 °F 19.5 °F 26.1 °F 96% 29.95 in 0.5 mi SE 6.9 mph - N/A Fog Light Freezing Fog
8:30 AM 27.0 °F 19.5 °F 26.1 °F 96% 29.95 in 0.8 mi ESE 6.9 mph - N/A   Overcast
8:40 AM 27.0 °F 19.5 °F 26.1 °F 96% 29.94 in 1.0 mi ESE 6.9 mph - N/A   Overcast
8:56 AM 27.0 °F 18.7 °F 26.1 °F 96% 29.95 in 1.2 mi ESE 8.1 mph - N/A   Overcast
9:19 AM 28.0 °F 20.0 °F 26.1 °F 92% 29.92 in 2.0 mi ESE 8.1 mph - N/A   Overcast
9:38 AM 28.0 °F 19.3 °F 27.0 °F 96% 29.91 in 1.8 mi ESE 9.2 mph - N/A   Overcast
9:56 AM 28.9 °F 21.9 °F 27.0 °F 92% 29.92 in 2.0 mi ESE 6.9 mph - N/A   Overcast
10:19 AM 28.9 °F 21.1 °F 27.0 °F 92% 29.89 in 3.0 mi SE 8.1 mph - N/A   Overcast
10:38 AM 30.0 °F 23.2 °F 28.0 °F 92% 29.88 in 2.5 mi ESE 6.9 mph - N/A   Overcast
10:56 AM 30.0 °F 22.4 °F 28.0 °F 92% 29.87 in 2.5 mi ESE 8.1 mph - N/A   Overcast
11:19 AM 30.0 °F 22.4 °F 28.0 °F 92% 29.83 in 3.0 mi ESE 8.1 mph - N/A   Overcast
11:26 AM 30.0 °F 24.1 °F 28.9 °F 96% 29.83 in 2.5 mi ESE 5.8 mph - N/A   Overcast
11:36 AM 30.9 °F 24.3 °F 28.9 °F 92% 29.82 in 3.0 mi SE 6.9 mph - N/A   Overcast
11:56 AM 30.9 °F 22.8 °F 28.9 °F 92% 29.82 in 3.0 mi SE 9.2 mph - N/A   Overcast
12:11 PM 32.0 °F 24.2 °F 28.9 °F 88% 29.78 in 4.0 mi SE 9.2 mph - N/A   Overcast
12:24 PM 32.0 °F 25.6 °F 28.9 °F 88% 29.77 in 4.0 mi SE 6.9 mph - N/A   Overcast
12:56 PM 32.0 °F 24.2 °F 30.0 °F 92% 29.75 in 3.0 mi ESE 9.2 mph - N/A   Overcast
1:46 PM 32.0 °F 24.8 °F 30.0 °F 92% 29.70 in 2.0 mi ESE 8.1 mph - N/A   Overcast
1:56 PM 32.0 °F 24.8 °F 30.0 °F 92% 29.71 in 2.5 mi ESE 8.1 mph - N/A   Overcast
2:13 PM 32.0 °F 24.2 °F 30.9 °F 96% 29.68 in 1.5 mi East 9.2 mph - N/A   Overcast
2:56 PM 32.0 °F 23.6 °F 30.9 °F 96% 29.67 in 1.0 mi East 10.4 mph - N/A   Overcast
3:07 PM 32.0 °F 24.2 °F 30.9 °F 96% 29.65 in 1.0 mi East 9.2 mph - N/A   Overcast
3:43 PM 33.1 °F 26.1 °F 32.0 °F 96% 29.64 in 0.8 mi ESE 8.1 mph - 0.00 in   Overcast
3:56 PM 33.1 °F 23.9 °F 32.0 °F 96% 29.63 in 0.8 mi East 12.7 mph - 0.00 in Rain Light Rain
4:13 PM 33.1 °F 23.4 °F 32.0 °F 96% 29.60 in 1.5 mi East 13.8 mph - 0.01 in Rain Light Rain
4:22 PM 33.1 °F 24.4 °F 32.0 °F 96% 29.59 in 1.8 mi East 11.5 mph - 0.01 in   Overcast
4:32 PM 33.1 °F 25.5 °F 32.0 °F 96% 29.59 in 2.5 mi East 9.2 mph - 0.01 in   Overcast
4:56 PM 34.0 °F - 32.0 °F 92% 29.62 in 4.0 mi Calm Calm - 0.01 in Rain Light Rain
5:14 PM 33.1 °F 27.7 °F 30.9 °F 92% 29.59 in 4.0 mi ENE 5.8 mph - 0.00 in Rain Light Rain
5:56 PM 33.1 °F 27.7 °F 32.0 °F 96% 29.58 in 5.0 mi ESE 5.8 mph - 0.01 in Rain Light Rain
6:17 PM 33.1 °F 26.9 °F 32.0 °F 96% 29.54 in 1.8 mi East 6.9 mph - 0.02 in Rain Rain
6:31 PM 33.1 °F 27.7 °F 32.0 °F 96% 29.55 in 2.0 mi East 5.8 mph - 0.03 in Rain Light Rain
6:51 PM 33.8 °F 30.8 °F 33.8 °F 100% 29.54 in 2.5 mi East 3.5 mph - 0.04 in Rain Light Rain
6:56 PM 33.1 °F 28.7 °F 33.1 °F 100% 29.55 in 2.0 mi East 4.6 mph - 0.05 in Rain Rain
7:06 PM 33.1 °F 27.7 °F 33.1 °F 100% 29.53 in 2.0 mi East 5.8 mph - 0.01 in Rain Light Rain
7:21 PM 34.0 °F 28.8 °F 33.1 °F 96% 29.53 in 4.0 mi East 5.8 mph - 0.01 in   Overcast
7:56 PM 33.1 °F 28.7 °F 33.1 °F 100% 29.52 in 2.5 mi East 4.6 mph - 0.01 in Rain Light Rain
8:27 PM 33.1 °F - 33.1 °F 100% 29.50 in 1.8 mi Calm Calm - 0.01 in Rain Light Rain
8:56 PM 33.1 °F - 33.1 °F 100% 29.50 in 1.0 mi Calm Calm - 0.01 in   Overcast
9:07 PM 33.1 °F - 32.0 °F 96% 29.49 in 0.8 mi Calm Calm - N/A   Overcast
9:43 PM 33.1 °F - 32.0 °F 96% 29.48 in 0.2 mi Calm Calm - 0.00 in Fog Fog
9:52 PM 33.8 °F - 32.0 °F 93% 29.47 in 0.2 mi Calm Calm - 0.00 in Fog , Rain Light Rain
9:56 PM 33.1 °F - 32.0 °F 96% 29.48 in 0.5 mi Calm Calm - 0.00 in Fog , Rain Light Rain
10:22 PM 33.1 °F - 32.0 °F 96% 29.47 in 0.2 mi Calm Calm - 0.00 in Fog Fog
10:56 PM 33.1 °F - 32.0 °F 96% 29.47 in 0.2 mi Calm Calm - 0.00 in Fog Fog
11:12 PM 32.0 °F - 32.0 °F 100% 29.46 in 0.2 mi Calm Calm - N/A Fog Fog
11:42 PM 32.0 °F 28.7 °F 32.0 °F 100% 29.46 in 0.5 mi SSW 3.5 mph - 0.00 in Fog Fog
11:56 PM 32.0 °F - 32.0 °F 100% 29.46 in 0.2 mi Calm Calm - 0.00 in Fog , Rain Light Rain